Regional Weather Roundup
Issued by NWS Goodland, KS

Home | Current Version | Previous Version | Graphics & Text | Print | Product List | Glossary On
Versions: 1 2 3 4 5 6 7 8 9 10 11 12 13 14 15 16 17 18 19 20 21 22 23 24 25 26 27 28 29 30 31 32 33 34 35 36 37 38 39 40 41 42 43 44 45 46 47 48 49 50
000
ASUS43 KGLD 040408
RWRGLD

GOODLAND FORECAST AREA HOURLY WEATHER ROUNDUP
NATIONAL WEATHER SERVICE GOODLAND KS
900 PM MST TUE MAR 03 2015

...OFFICIAL OBSERVATIONS...

CITY           SKY/WX    TMP DP  RH WIND       PRES   REMARKS
GOODLAND KS    CLOUDY    24  14  65 E12       29.98R WCI  13
HILL CITY KS   CLOUDY    26   7  44 NE14      30.06R WCI  14
IMPERIAL NEB     N/A     19  11  70 NE13      30.05R WCI   6
MCCOOK NEB     FLURRIES  23   8  52 NE15      30.08R WCI  10
AKRON CO       LGT SNOW  18  15  88 NE12      29.95R FOG     WCI   5
BURLINGTON CO  CLOUDY    25  14  63 NE12      29.94S WCI  14
LIMON CO       NOT AVBL
$$

...UNOFFICIAL OBSERVATIONS...

CITY           SKY/WX    TMP DP  RH WIND       PRES   REMARKS
COLBY KS       CLOUDY    27  14  59 N12       30.03R WCI  16
GOVE KS          N/A     28  32 100 MISG        N/A
LENORA KS        N/A     24  32 100 S16         N/A  WCI  11
NORTON KS      CLOUDY    25   0  33 N12       30.06R WCI  14
SHARON SPRINGS   N/A     27  19  71 NE12        N/A  WCI  17
TRIBUNE KS     CLOUDY    30  23  74 NE9       29.98R
KIT CARSON CO    N/A     25  18  74 MISG        N/A
YUMA CO          N/A     19  14  81 NE6         N/A
$$


USA.gov is the U.S. government's official web portal to all federal, state and local government web resources and services.